Weather in Chemnitz

Germany     50˚50′07″N   13˚01′21″E
temp.,
°C
wind,
m/s
gust,
m/s
humid.,
%
clouds,
%
prec.,
mm/h
press.,
hPa
HPBL,
m
29 november, sun
sun2901:00−2˚e128316 0.0 102648
04:00−2˚ne129512 0.0 102637
07:00−1˚ene249142 0.0 1026343
10:00nne138459 0.0 1026319
13:00+1˚nw238879 0.1 1026325
16:00nw249599 0.1 1025283
19:00nnw139699 0.2 1026230
22:00nw1296100 0.2 1027170
30 november, mon
mon3001:00−2˚wnw119996 0.3 102732
04:00−1˚wnw129493 0.1 1026215
07:00−1˚nw138696 0.1 1027319
10:00w127294 0.0 1027557
13:00+1˚w236491 0.0 1027826
16:00−2˚wsw118219 0.0 102521
19:00−2˚s23849 0.0 102455
22:00−2˚s24840 0.0 1023107
1 december, tue
tue101:00−2˚s39801 0.0 1021280
04:00−1˚sse3673100 0.0 1019186
07:00−1˚sse3673100 0.0 1018220
10:00−1˚sse4785100 0.1 1018307
13:00+2˚sse3671100 0.2 1018358
16:00sse257996 0.0 1018204
19:00−2˚se248296 0.0 1020146
22:00−3˚se258954 0.0 1021146
2 december, wed
wed201:00−3˚se269039 0.0 1021206
04:00−4˚se23900 0.0 1021124
07:00−4˚se26880 0.0 1020267
10:00−2˚sse38690 0.0 1020359
13:00se36560 0.0 1018458
16:00−3˚se38780 0.0 1017353
19:00−4˚sse29810 0.0 1017353
22:00−4˚sse398015 0.0 1017352
3 december, thu
thu301:00−4˚sse228422 0.0 101587
04:00−5˚sse23862 0.0 101499
07:00−5˚sse24871 0.0 1013126
10:00−3˚sse25750 0.0 1012259
13:00−1˚sse246434 0.0 1010340
16:00−3˚se288275 0.0 1008310
19:00−2˚sse258487 0.0 1006203
22:00−2˚sse2586100 0.0 1004178